Weather History for New Bedford, MA

Change the Weather History Date:

Saturday, March 12, 2011

  Actual Average Record
Temperature  
Mean Temperature 44 °F -  
Max Temperature 50 °F 44 °F 71 °F (2012)
Min Temperature 37 °F 30 °F 12 °F (1984)
Degree Days  
Heating Degree Days 22    
Moisture  
Dew Point 34 °F    
Average Humidity 75    
Maximum Humidity 93    
Minimum Humidity 46    
Precipitation  
Precipitation 0.00 in - - ()
Sea Level Pressure  
Sea Level Pressure 29.79 in    
Wind  
Wind Speed 7 mph (SW)    
Max Wind Speed 22 mph    
Max Gust Speed 30 mph    
Visibility 6 miles    
Events Fog    
Averages and records for this station are not official NWS values.
T = Trace of Precipitation, MM = Missing Value Source: NWS Daily Summary

Daily Weather History Graph

Daily Weather History Graph

Search for Another Location

Airport:

Trip Planner

Search our weather history database for the weather conditions in past years. The results will help you decide how hot, cold, wet, or windy it might be!

Date:

Astronomy

Mar. 12, 2011 Rise Set
Actual Time 6:01 AM EST 5:46 PM EST
Civil Twilight 5:33 AM EST 6:14 PM EST
Nautical Twilight 5:01 AM EST 6:46 PM EST
Astronomical Twilight 4:28 AM EST 7:19 PM EST
Moon 9:57 AM EST (3/12) 12:40 AM EST (3/12)
Length of Visible Light 12h 40m
Length of Day
11h 45m
Waxing Crescent, 47% of the Moon is Illuminated
Mar 12
Waxing Crescent
Mar 12
First Quarter
Mar 19
Full
Mar 26
Last Quarter
Apr 3
New

Hourly Weather History & Observations

Time (EST) Temp. Windchill Dew Point Humidity Pressure Visibility Wind Dir Wind Speed Gust Speed Precip Events Conditions
12:24 AM 39.2 °F 35.0 °F 37.4 °F 93% 29.75 in 2.0 mi WSW 5.8 mph - N/A   Scattered Clouds
12:33 AM 39.2 °F 35.0 °F 37.4 °F 93% 29.76 in 2.0 mi SW 5.8 mph - N/A   Mostly Cloudy
12:53 AM 39.9 °F 36.7 °F 37.9 °F 93% 29.77 in 2.0 mi SW 4.6 mph - N/A   Overcast
1:53 AM 39.9 °F - 37.9 °F 93% 29.78 in 2.0 mi Calm Calm - N/A   Overcast
2:04 AM 39.2 °F - 37.4 °F 93% 29.78 in 1.0 mi Calm Calm - N/A   Overcast
2:12 AM 39.2 °F - 37.4 °F 93% 29.77 in 0.5 mi Calm Calm - N/A Fog Fog
2:24 AM 37.4 °F - 35.6 °F 93% 29.77 in 0.2 mi Calm Calm - N/A Fog Fog
2:40 AM 37.4 °F - 35.6 °F 93% 29.77 in 0.5 mi Calm Calm - N/A Fog Fog
2:53 AM 37.9 °F - 36.0 °F 93% 29.77 in 0.5 mi Calm Calm - N/A Fog Fog
3:13 AM 37.4 °F 34.9 °F 35.6 °F 93% 29.77 in 0.5 mi SSW 3.5 mph - N/A Fog Fog
3:29 AM 37.4 °F 34.9 °F 35.6 °F 93% 29.77 in 2.0 mi South 3.5 mph - N/A   Overcast
3:53 AM 37.9 °F 35.5 °F 35.1 °F 89% 29.76 in 2.0 mi SW 3.5 mph - N/A   Mostly Cloudy
4:53 AM 37.0 °F 29.8 °F 33.1 °F 86% 29.77 in 2.0 mi SW 10.4 mph - N/A   Mostly Cloudy
5:53 AM 37.9 °F 32.1 °F 32.0 °F 79% 29.78 in 2.0 mi WSW 8.1 mph - N/A   Mostly Cloudy
6:51 AM 37.4 °F 30.8 °F 30.2 °F 75% 29.79 in 10.0 mi WSW 9.2 mph - N/A   Mostly Cloudy
6:53 AM 37.9 °F 32.1 °F 30.9 °F 76% 29.79 in 10.0 mi WSW 8.1 mph - N/A   Mostly Cloudy
7:53 AM 41.0 °F 33.9 °F 30.9 °F 67% 29.81 in 10.0 mi WSW 12.7 mph 19.6 mph N/A   Clear
8:53 AM 42.8 °F 34.5 °F 28.4 °F 57% 29.80 in 10.0 mi WSW 18.4 mph 27.6 mph N/A   Partly Cloudy
9:53 AM 45.0 °F 36.6 °F 28.9 °F 53% 29.79 in 10.0 mi West 21.9 mph 29.9 mph N/A   Clear
10:53 AM 46.9 °F - 28.9 °F 50% 29.79 in 10.0 mi West 12.7 mph - N/A   Mostly Cloudy
11:53 AM 50.0 °F - 30.0 °F 46% 29.78 in 10.0 mi WSW 12.7 mph 24.2 mph N/A   Scattered Clouds
12:53 PM 48.9 °F - 34.0 °F 56% 29.77 in 10.0 mi SSW 19.6 mph 28.8 mph N/A   Mostly Cloudy
1:53 PM 50.0 °F - 34.0 °F 54% 29.76 in 10.0 mi SW 15.0 mph 25.3 mph N/A   Clear
2:53 PM 50.0 °F - 34.0 °F 54% 29.76 in 10.0 mi SW 19.6 mph 27.6 mph N/A   Clear
3:53 PM 48.9 °F - 33.1 °F 54% 29.77 in 10.0 mi SW 18.4 mph 26.5 mph N/A   Clear
4:53 PM 46.0 °F 39.0 °F 33.1 °F 61% 29.78 in 10.0 mi SW 17.3 mph 23.0 mph N/A   Partly Cloudy
5:53 PM 45.0 °F 39.7 °F 33.1 °F 63% 29.81 in 10.0 mi SW 10.4 mph 18.4 mph N/A   Mostly Cloudy
6:53 PM 44.1 °F 37.7 °F 35.1 °F 71% 29.82 in 10.0 mi SW 12.7 mph - N/A   Mostly Cloudy
7:53 PM 44.1 °F 39.0 °F 34.0 °F 68% 29.84 in 10.0 mi SW 9.2 mph 17.3 mph N/A   Partly Cloudy
8:53 PM 43.0 °F 38.2 °F 34.0 °F 71% 29.86 in 10.0 mi SW 8.1 mph - N/A   Clear
9:53 PM 42.1 °F 36.6 °F 35.1 °F 76% 29.86 in 10.0 mi SW 9.2 mph - N/A   Partly Cloudy
10:53 PM 39.9 °F 36.7 °F 34.0 °F 79% 29.86 in 10.0 mi SSW 4.6 mph - N/A   Clear
11:53 PM 39.0 °F 35.7 °F 34.0 °F 82% 29.84 in 10.0 mi SSW 4.6 mph - N/A   Partly Cloudy